Location: Zagreb
(45.8000°N, 16.0000°E)
Time: 20:59:16
(UTC+01:00)

DX 1 - Pass Details

Date: 02 November 2020
Orbit: 619 x 630 km, 98.5° (Epoch: 01 December)

Event Time Altitude Azimuth Distance (km) Brightness Sun altitude
Rises 03:41:53 0° 106° (ESE) 2,892 ? -31.0°
Reaches altitude 10° 03:46:14 10° 64° (ENE) 1,992 ? -30.2°
Maximum altitude 03:46:47 10° 56° (ENE) 1,979 ? -30.2°
Drops below altitude 10° 03:47:20 10° 49° (NE) 1,994 ? -30.1°
Sets 03:51:41 0° 7° (N) 2,907 ? -29.3°
